STARLINK-32025 (60138 NORAD) Tracking and Keplerian Element Data

This shows tracking and keplerian element data for the satellite.

Feedback or suggestion? Click here.




ElementValue
Catalog60138
NameSTARLINK-32025
Epoch Orbit1778
Epoch Day286.75935617
Epoch Year2024
RAAN186.739
Inclination53.1579
Eccentricity0.0001051
Argument of Perigee40.1329
Mean Anonmoly319.9754
Mean Motion15.39707727
Decay Rate0.00071568
L11 60138U 24120D 24286.75935617 .00071568 00000+0 17773-2 0 9995
L22 60138 53.1579 186.7390 0001051 40.1329 319.9754 15.39707727 17789



Live tracking and technical data element details for STARLINK-32025 (NORAD 60138). STARLINK-32025 can be tracked NOW for your location showing map with azimuth and elevation plus other details from your city location.







IsCatalogInMostPopularTable: catalog: 60138, numindb: 9
Update: records affected: 1



GetName: 60138 STARLINK-32025

Hit Count: updated at: Thu, 23 Jan 2025 12:53:50 GMT